Location: Domont
(49.0278°N, 2.3264°E)
Time: 12:21:54
(UTC+00:00)

NOAA 18 - Pass Details

Date: 29 June 2022
Orbit: 839 x 860 km, 98.9° (Epoch: 13 August)

Event Time Altitude Azimuth Distance (km) Brightness Sun altitude
Exits shadow 21:21:02 11° 165° (SSE) 2,415 7.0 -10.1°
Maximum altitude 21:26:23 85° 254° (WSW) 865 5.3 -10.6°
Drops below altitude 10° 21:31:58 10° 344° (NNW) 2,504 9.0 -11.1°
Sets 21:34:22 0° 345° (NNW) 3,447 10.0 -11.3°
